QPF
0.05 0.05 0.03 0.03 0.03 0.02 0.02 0.02 0.01 0.00 0.00 0.00 0.00 0.01 0.02 0.02 0.02 0.01 0.00 0.01 0.00 0.00 0.00 0.00 0.00 0.00 0.00 0.00 0.00 0.00 0.00 0.00 0.00 0.00 0.00 0.00 0.00 0.00
0.03 0.03 0.02 0.01 0.01 0.01 0.01 0.02 0.02 0.01 0.01 0.01 0.01 0.01 0.03 0.04 0.05 0.05 0.03 0.02 0.00 0.00 0.00 0.00 0.00 0.00 0.00 0.00 0.00 0.00 0.00 0.00 0.00 0.00 0.00 0.00 0.00 0.00
0.02 0.02 0.01 0.01 0.01 0.01 0.01 0.01 0.02 0.02 0.01 0.02 0.03 0.03 0.04 0.06 0.08 0.08 0.05 0.03 0.02 0.02 0.01 0.00 0.00 0.00 0.00 0.00 0.00 0.00 0.00 0.00 0.00 0.00 0.00 0.00 0.00 0.00
0.02 0.02 0.01 0.01 0.01 0.01 0.01 0.01 0.01 0.02 0.02 0.02 0.04 0.05 0.05 0.06 0.08 0.10 0.09 0.06 0.06 0.06 0.07 0.05 0.03 0.02 0.01 0.01 0.00 0.00 0.00 0.00 0.00 0.00 0.00 0.00 0.00 0.00
0.06 0.04 0.02 0.01 0.01 0.01 0.01 0.01 0.01 0.02 0.02 0.02 0.03 0.05 0.05 0.06 0.06 0.08 0.09 0.10 0.11 0.10 0.13 0.15 0.14 0.10 0.07 0.05 0.03 0.02 0.01 0.00 0.00 0.00 0.00 0.00 0.00 0.00
0.12 0.09 0.06 0.03 0.02 0.01 0.01 0.01 0.01 0.01 0.01 0.01 0.01 0.02 0.03 0.03 0.03 0.04 0.07 0.11 0.13 0.11 0.08 0.11 0.14 0.13 0.11 0.09 0.06 0.04 0.03 0.02 0.01 0.01 0.00 0.00 0.00 0.00
0.09 0.07 0.06 0.05 0.02 0.02 0.01 0.01 0.00 0.01 0.01 0.01 0.01 0.02 0.02 0.02 0.03 0.04 0.06 0.10 0.11 0.10 0.07 0.07 0.09 0.10 0.12 0.11 0.10 0.09 0.08 0.07 0.05 0.03 0.02 0.01 0.01 0.00
0.07 0.06 0.06 0.04 0.03 0.02 0.01 0.00 0.00 0.00 0.01 0.01 0.02 0.01 0.01 0.02 0.02 0.03 0.04 0.05 0.07 0.09 0.08 0.08 0.07 0.09 0.13 0.14 0.16 0.18 0.19 0.18 0.14 0.09 0.06 0.04 0.02 0.01
0.04 0.05 0.07 0.06 0.06 0.06 0.04 0.02 0.01 0.01 0.01 0.01 0.01 0.01 0.01 0.02 0.02 0.01 0.02 0.02 0.03 0.04 0.05 0.06 0.05 0.06 0.07 0.08 0.11 0.14 0.15 0.16 0.15 0.12 0.09 0.06 0.03 0.02
0.03 0.05 0.07 0.08 0.10 0.13 0.10 0.07 0.05 0.04 0.02 0.01 0.01 0.01 0.01 0.01 0.00 0.00 0.00 0.01 0.00 0.01 0.02 0.02 0.03 0.02 0.02 0.03 0.05 0.07 0.09 0.10 0.10 0.09 0.08 0.06 0.04 0.04
0.02 0.03 0.04 0.08 0.11 0.15 0.12 0.09 0.10 0.09 0.07 0.05 0.03 0.02 0.01 0.00 0.00 0.00 0.00 0.00 0.00 0.00 0.00 0.00 0.00 0.00 0.00 0.01 0.01 0.02 0.04 0.05 0.05 0.04 0.05 0.05 0.05 0.05
0.01 0.02 0.04 0.06 0.08 0.10 0.08 0.07 0.08 0.09 0.08 0.06 0.05 0.03 0.02 0.01 0.00 0.00 0.00 0.00 0.00 0.00 0.00 0.00 0.00 0.00 0.00 0.00 0.00 0.00 0.01 0.02 0.02 0.03 0.03 0.04 0.04 0.04
0.00 0.01 0.02 0.04 0.04 0.04 0.03 0.03 0.05 0.08 0.10 0.08 0.06 0.04 0.04 0.03 0.02 0.01 0.00 0.00 0.00 0.00 0.00 0.00 0.00 0.00 0.00 0.00 0.00 0.00 0.00 0.00 0.01 0.01 0.02 0.02 0.03 0.03
0.00 0.00 0.01 0.01 0.02 0.02 0.02 0.03 0.04 0.05 0.07 0.06 0.04 0.04 0.03 0.04 0.03 0.02 0.01 0.00 0.00 0.00 0.00 0.00 0.00 0.00 0.00 0.00 0.00 0.00 0.00 0.00 0.00 0.00 0.00 0.01 0.01 0.01
0.00 0.00 0.00 0.01 0.01 0.01 0.01 0.02 0.03 0.03 0.04 0.03 0.03 0.04 0.03 0.02 0.02 0.02 0.01 0.01 0.00 0.00 0.00 0.01 0.00 0.00 0.00 0.00 0.00 0.00 0.00 0.00 0.00 0.00 0.00 0.00 0.00 0.00
0.00 0.00 0.00 0.01 0.01 0.01 0.02 0.02 0.03 0.03 0.02 0.02 0.03 0.03 0.02 0.01 0.01 0.01 0.01 0.00 0.00 0.00 0.00 0.00 0.00 0.00 0.00 0.00 0.00 0.00 0.00 0.00 0.00 0.00 0.00 0.00 0.00 0.00
0.01 0.01 0.01 0.02 0.02 0.02 0.03 0.03 0.04 0.03 0.02 0.01 0.02 0.01 0.01 0.01 0.01 0.01 0.00 0.00 0.00 0.00 0.00 0.00 0.00 0.00 0.00 0.00 0.00 0.00 0.00 0.00 0.00 0.00 0.00 0.00 0.00 0.00
0.02 0.02 0.02 0.04 0.03 0.03 0.03 0.03 0.03 0.03 0.02 0.01 0.01 0.01 0.01 0.01 0.01 0.00 0.00 0.00 0.00 0.00 0.00 0.00 0.00 0.00 0.00 0.00 0.00 0.00 0.00 0.00 0.00 0.00 0.00 0.00 0.00 0.00
0.01 0.01 0.02 0.02 0.02 0.02 0.02 0.02 0.01 0.01 0.01 0.01 0.01 0.01 0.01 0.00 0.00 0.00 0.00 0.00 0.00 0.00 0.00 0.00 0.00 0.00 0.00 0.00 0.00 0.00 0.00 0.00 0.00 0.00 0.00 0.00 0.00 0.00
0.00 0.00 0.00 0.01 0.01 0.01 0.01 0.01 0.01 0.01 0.01 0.00 0.00 0.00 0.00 0.00 0.00 0.00 0.00 0.00 0.00 0.00 0.00 0.00 0.00 0.00 0.00 0.00 0.00 0.00 0.00 0.00 0.00 0.00 0.00 0.00 0.00 0.00
0.00 0.00 0.00 0.00 0.00 0.00 0.00 0.00 0.00 0.00 0.00 0.00 0.00 0.00 0.00 0.00 0.00 0.00 0.00 0.00 0.00 0.00 0.00 0.00 0.00 0.00 0.00 0.00 0.00 0.00 0.00 0.00 0.00 0.00 0.00 0.00 0.00 0.00
0.00 0.00 0.00 0.00 0.00 0.00 0.00 0.00 0.00 0.00 0.00 0.00 0.00 0.00 0.00 0.00 0.00 0.00 0.00 0.00 0.00 0.00 0.00 0.00 0.00 0.00 0.00 0.00 0.00 0.00 0.00 0.00 0.00 0.00 0.00 0.00 0.00 0.00
0.00 0.00 0.00 0.00 0.00 0.00 0.00 0.00 0.00 0.00 0.00 0.00 0.00 0.00 0.00 0.00 0.00 0.00 0.00 0.00 0.00 0.00 0.00 0.00 0.00 0.00 0.00 0.00 0.00 0.00 0.00 0.00 0.00 0.00 0.00 0.00 0.00 0.00
MSLP
1014.66 1014.88 1015.15 1015.44 1015.73 1016.02 1016.25 1016.42 1016.50 1016.50 1016.41 1016.28 1016.12 1015.97 1015.85 1015.80 1015.82 1015.92 1016.07 1016.27 1016.49 1016.72 1016.93 1017.13 1017.31 1017.48 1017.64 1017.80 1017.95 1018.09 1018.20 1018.28 1018.32 1018.31 1018.27 1018.21 1018.13 1018.07
1014.41 1014.58 1014.78 1015.03 1015.29 1015.55 1015.79 1015.97 1016.08 1016.12 1016.08 1015.99 1015.86 1015.73 1015.62 1015.56 1015.56 1015.63 1015.76 1015.94 1016.15 1016.37 1016.59 1016.80 1016.99 1017.18 1017.36 1017.54 1017.70 1017.86 1017.99 1018.08 1018.14 1018.14 1018.11 1018.05 1017.97 1017.90
1014.18 1014.28 1014.43 1014.62 1014.84 1015.08 1015.32 1015.52 1015.67 1015.76 1015.77 1015.73 1015.65 1015.54 1015.45 1015.39 1015.38 1015.43 1015.53 1015.69 1015.87 1016.07 1016.27 1016.47 1016.66 1016.84 1017.02 1017.19 1017.36 1017.52 1017.67 1017.78 1017.85 1017.88 1017.87 1017.82 1017.74 1017.67
1013.97 1014.01 1014.10 1014.24 1014.43 1014.65 1014.89 1015.11 1015.31 1015.45 1015.52 1015.54 1015.51 1015.45 1015.38 1015.33 1015.31 1015.34 1015.42 1015.54 1015.69 1015.86 1016.03 1016.20 1016.36 1016.52 1016.67 1016.82 1016.97 1017.13 1017.27 1017.39 1017.48 1017.54 1017.55 1017.52 1017.47 1017.40
1013.80 1013.78 1013.82 1013.92 1014.08 1014.29 1014.54 1014.79 1015.02 1015.21 1015.34 1015.42 1015.44 1015.42 1015.38 1015.35 1015.34 1015.36 1015.42 1015.51 1015.63 1015.76 1015.90 1016.02 1016.14 1016.25 1016.36 1016.47 1016.59 1016.71 1016.84 1016.96 1017.07 1017.14 1017.18 1017.18 1017.15 1017.09
1013.68 1013.62 1013.61 1013.68 1013.82 1014.03 1014.28 1014.55 1014.81 1015.05 1015.23 1015.36 1015.42 1015.45 1015.44 1015.43 1015.43 1015.45 1015.51 1015.59 1015.68 1015.78 1015.88 1015.97 1016.04 1016.09 1016.14 1016.19 1016.26 1016.34 1016.44 1016.54 1016.65 1016.74 1016.80 1016.83 1016.81 1016.77
1013.64 1013.53 1013.50 1013.54 1013.67 1013.87 1014.12 1014.40 1014.69 1014.95 1015.16 1015.33 1015.43 1015.49 1015.52 1015.53 1015.55 1015.59 1015.65 1015.73 1015.82 1015.91 1015.98 1016.03 1016.05 1016.05 1016.04 1016.03 1016.03 1016.06 1016.11 1016.18 1016.27 1016.36 1016.43 1016.47 1016.48 1016.45
1013.67 1013.54 1013.48 1013.50 1013.62 1013.81 1014.06 1014.34 1014.63 1014.90 1015.13 1015.31 1015.44 1015.52 1015.57 1015.62 1015.67 1015.73 1015.81 1015.91 1016.01 1016.10 1016.16 1016.19 1016.18 1016.14 1016.08 1016.00 1015.94 1015.89 1015.89 1015.92 1015.97 1016.04 1016.11 1016.16 1016.17 1016.15
1013.79 1013.64 1013.56 1013.57 1013.67 1013.85 1014.08 1014.35 1014.63 1014.89 1015.12 1015.30 1015.44 1015.54 1015.61 1015.69 1015.77 1015.86 1015.97 1016.10 1016.22 1016.33 1016.40 1016.43 1016.41 1016.33 1016.22 1016.10 1015.97 1015.87 1015.80 1015.77 1015.78 1015.82 1015.87 1015.90 1015.92 1015.90
1013.97 1013.81 1013.72 1013.72 1013.80 1013.96 1014.18 1014.42 1014.68 1014.92 1015.13 1015.30 1015.44 1015.55 1015.65 1015.75 1015.85 1015.98 1016.13 1016.29 1016.44 1016.58 1016.67 1016.71 1016.68 1016.60 1016.46 1016.30 1016.13 1015.97 1015.84 1015.76 1015.72 1015.71 1015.73 1015.75 1015.75 1015.72
1014.19 1014.02 1013.93 1013.92 1013.99 1014.13 1014.32 1014.54 1014.77 1014.99 1015.18 1015.34 1015.48 1015.60 1015.72 1015.83 1015.97 1016.12 1016.30 1016.48 1016.66 1016.82 1016.93 1016.98 1016.97 1016.89 1016.75 1016.57 1016.37 1016.18 1016.01 1015.88 1015.79 1015.74 1015.72 1015.71 1015.69 1015.65
1014.43 1014.26 1014.17 1014.16 1014.22 1014.34 1014.51 1014.70 1014.91 1015.10 1015.29 1015.45 1015.59 1015.72 1015.85 1015.98 1016.13 1016.30 1016.49 1016.69 1016.89 1017.05 1017.18 1017.25 1017.25 1017.19 1017.06 1016.88 1016.68 1016.47 1016.28 1016.12 1015.99 1015.91 1015.85 1015.82 1015.78 1015.73
1014.67 1014.51 1014.42 1014.41 1014.46 1014.57 1014.72 1014.90 1015.09 1015.28 1015.47 1015.63 1015.79 1015.93 1016.08 1016.22 1016.38 1016.56 1016.74 1016.93 1017.12 1017.29 1017.41 1017.49 1017.51 1017.47 1017.36 1017.21 1017.03 1016.83 1016.63 1016.46 1016.32 1016.21 1016.13 1016.08 1016.02 1015.97
1014.94 1014.79 1014.71 1014.69 1014.73 1014.83 1014.97 1015.14 1015.33 1015.52 1015.72 1015.90 1016.08 1016.25 1016.41 1016.57 1016.73 1016.89 1017.05 1017.22 1017.38 1017.52 1017.64 1017.71 1017.74 1017.73 1017.65 1017.54 1017.40 1017.23 1017.06 1016.90 1016.76 1016.64 1016.55 1016.48 1016.42 1016.35
1015.26 1015.12 1015.04 1015.02 1015.06 1015.14 1015.27 1015.44 1015.62 1015.83 1016.04 1016.26 1016.46 1016.65 1016.83 1017.00 1017.15 1017.29 1017.43 1017.55 1017.67 1017.78 1017.87 1017.93 1017.97 1017.98 1017.95 1017.88 1017.79 1017.67 1017.54 1017.41 1017.29 1017.18 1017.08 1017.00 1016.93 1016.86
1015.69 1015.56 1015.47 1015.44 1015.46 1015.53 1015.65 1015.80 1015.99 1016.21 1016.44 1016.68 1016.91 1017.13 1017.33 1017.49 1017.64 1017.75 1017.85 1017.93 1018.00 1018.06 1018.12 1018.17 1018.21 1018.24 1018.25 1018.24 1018.21 1018.15 1018.07 1017.98 1017.88 1017.78 1017.69 1017.61 1017.53 1017.45
1016.26 1016.13 1016.04 1015.99 1015.99 1016.03 1016.12 1016.26 1016.44 1016.66 1016.90 1017.16 1017.41 1017.64 1017.85 1018.02 1018.15 1018.24 1018.30 1018.34 1018.36 1018.39 1018.41 1018.45 1018.50 1018.55 1018.60 1018.63 1018.65 1018.65 1018.63 1018.58 1018.51 1018.43 1018.33 1018.24 1018.14 1018.04
1016.99 1016.86 1016.77 1016.70 1016.66 1016.67 1016.73 1016.83 1016.99 1017.19 1017.42 1017.67 1017.93 1018.17 1018.38 1018.55 1018.67 1018.74 1018.77 1018.77 1018.77 1018.76 1018.77 1018.80 1018.85 1018.92 1019.00 1019.08 1019.14 1019.19 1019.20 1019.19 1019.14 1019.06 1018.96 1018.85 1018.73 1018.60
1017.86 1017.74 1017.63 1017.54 1017.47 1017.44 1017.45 1017.51 1017.62 1017.79 1017.99 1018.22 1018.47 1018.70 1018.90 1019.06 1019.17 1019.23 1019.24 1019.23 1019.21 1019.19 1019.19 1019.21 1019.27 1019.36 1019.46 1019.57 1019.67 1019.74 1019.78 1019.78 1019.73 1019.65 1019.53 1019.39 1019.24 1019.07
1018.81 1018.71 1018.60 1018.49 1018.39 1018.31 1018.27 1018.27 1018.33 1018.44 1018.60 1018.79 1019.00 1019.21 1019.39 1019.53 1019.64 1019.69 1019.71 1019.69 1019.67 1019.66 1019.66 1019.70 1019.77 1019.87 1019.98 1020.11 1020.22 1020.30 1020.34 1020.33 1020.28 1020.18 1020.04 1019.87 1019.67 1019.47
1019.76 1019.68 1019.57 1019.45 1019.33 1019.21 1019.12 1019.07 1019.06 1019.11 1019.21 1019.35 1019.51 1019.68 1019.84 1019.97 1020.07 1020.13 1020.15 1020.16 1020.16 1020.16 1020.18 1020.24 1020.32 1020.42 1020.55 1020.67 1020.77 1020.84 1020.87 1020.85 1020.77 1020.64 1020.47 1020.27 1020.05 1019.81
1020.60 1020.55 1020.46 1020.34 1020.21 1020.06 1019.93 1019.83 1019.77 1019.76 1019.79 1019.87 1019.98 1020.11 1020.24 1020.36 1020.45 1020.52 1020.57 1020.60 1020.63 1020.67 1020.72 1020.80 1020.89 1021.00 1021.12 1021.23 1021.32 1021.36 1021.37 1021.31 1021.21 1021.06 1020.86 1020.64 1020.39 1020.13
1021.25 1021.23 1021.17 1021.07 1020.94 1020.78 1020.63 1020.49 1020.39 1020.32 1020.30 1020.33 1020.39 1020.48 1020.58 1020.68 1020.78 1020.87 1020.94 1021.01 1021.08 1021.15 1021.24 1021.34 1021.45 1021.56 1021.67 1021.77 1021.83 1021.85 1021.82 1021.74 1021.61 1021.44 1021.23 1021.00 1020.74 1020.48
Thickness
5693 5693 5692 5692 5692 5692 5691 5689 5684 5680 5681 5688 5691 5695 5696 5695 5693 5691 5689 5687 5684 5682 5680 5679 5678 5678 5678 5678 5679 5679 5679 5679 5679 5680 5681 5682 5683 5685
5686 5685 5684 5684 5684 5684 5684 5684 5683 5680 5677 5682 5685 5689 5690 5690 5689 5687 5685 5683 5681 5679 5677 5676 5675 5674 5675 5675 5675 5675 5675 5675 5675 5675 5676 5676 5677 5678
5678 5678 5677 5677 5677 5677 5677 5678 5678 5677 5674 5677 5681 5683 5684 5684 5684 5683 5681 5679 5677 5676 5675 5674 5673 5672 5672 5672 5672 5671 5671 5671 5671 5671 5671 5671 5672 5673
5671 5671 5670 5671 5671 5672 5672 5673 5674 5674 5672 5671 5674 5677 5678 5679 5679 5678 5677 5676 5674 5673 5673 5672 5671 5670 5670 5669 5669 5669 5668 5668 5667 5667 5666 5667 5667 5667
5666 5666 5666 5666 5666 5667 5668 5669 5670 5671 5669 5668 5669 5671 5673 5674 5673 5673 5673 5672 5671 5670 5670 5670 5670 5669 5668 5667 5666 5666 5666 5665 5665 5664 5663 5663 5662 5662
5662 5663 5664 5664 5664 5665 5665 5666 5666 5665 5664 5663 5663 5665 5667 5668 5667 5666 5665 5666 5666 5667 5667 5667 5667 5667 5666 5665 5664 5664 5664 5663 5663 5662 5661 5660 5659 5658
5659 5661 5662 5663 5664 5663 5662 5661 5661 5659 5659 5658 5658 5659 5659 5660 5660 5661 5660 5660 5661 5662 5662 5662 5662 5663 5663 5662 5662 5662 5662 5662 5661 5660 5659 5658 5657 5656
5655 5657 5659 5660 5659 5659 5659 5658 5657 5655 5654 5653 5653 5653 5653 5654 5655 5655 5655 5653 5652 5655 5655 5655 5657 5656 5657 5657 5657 5658 5659 5659 5659 5658 5657 5655 5654 5652
5650 5651 5653 5653 5653 5652 5652 5653 5652 5653 5652 5650 5649 5648 5649 5650 5650 5649 5649 5648 5647 5648 5649 5648 5649 5649 5650 5650 5651 5653 5653 5654 5654 5653 5652 5651 5649 5648
5642 5644 5645 5645 5646 5645 5645 5645 5645 5646 5647 5647 5646 5646 5646 5647 5647 5646 5645 5644 5643 5642 5643 5641 5641 5642 5643 5644 5645 5645 5646 5646 5646 5646 5644 5643 5642 5641
5632 5634 5636 5637 5640 5640 5639 5639 5638 5639 5641 5642 5642 5641 5641 5641 5641 5640 5638 5636 5634 5635 5636 5635 5635 5635 5637 5638 5638 5638 5638 5637 5637 5636 5635 5634 5633 5631
5621 5623 5627 5630 5632 5634 5634 5633 5632 5633 5634 5635 5635 5635 5635 5635 5635 5635 5633 5631 5629 5629 5630 5630 5629 5629 5629 5630 5630 5630 5630 5628 5627 5626 5625 5624 5622 5620
5611 5613 5617 5621 5624 5627 5628 5629 5630 5630 5630 5630 5629 5629 5629 5629 5629 5630 5630 5628 5626 5625 5626 5625 5623 5622 5621 5620 5621 5620 5619 5618 5617 5615 5614 5612 5610 5608
5603 5606 5609 5614 5617 5620 5622 5624 5625 5626 5625 5624 5624 5623 5623 5624 5624 5625 5625 5625 5624 5623 5622 5621 5619 5617 5615 5612 5610 5610 5609 5607 5605 5603 5601 5599 5597 5594
5598 5601 5604 5607 5610 5613 5615 5618 5620 5620 5620 5619 5619 5619 5619 5620 5621 5621 5620 5620 5619 5618 5617 5617 5615 5613 5610 5606 5603 5600 5598 5595 5593 5590 5587 5583 5579 5577
5593 5595 5598 5601 5603 5606 5609 5611 5614 5616 5617 5616 5616 5616 5616 5616 5617 5617 5615 5615 5613 5611 5612 5612 5611 5608 5604 5599 5595 5591 5587 5583 5579 5576 5572 5567 5563 5558
5589 5590 5592 5594 5597 5599 5602 5606 5609 5611 5612 5612 5613 5612 5612 5612 5612 5612 5611 5610 5607 5604 5603 5604 5603 5601 5597 5593 5587 5582 5578 5573 5568 5564 5560 5554 5548 5543
5587 5586 5587 5589 5592 5594 5597 5600 5603 5605 5608 5609 5609 5609 5609 5608 5607 5607 5606 5604 5602 5599 5598 5597 5596 5594 5590 5585 5579 5575 5569 5564 5559 5554 5550 5544 5538 5532
5586 5584 5585 5586 5588 5591 5593 5596 5598 5600 5604 5606 5606 5606 5606 5605 5605 5603 5602 5600 5598 5595 5594 5593 5591 5588 5583 5578 5573 5568 5562 5557 5552 5547 5541 5535 5529 5524
5585 5584 5585 5586 5588 5590 5592 5594 5596 5598 5601 5602 5603 5603 5603 5603 5602 5600 5599 5597 5595 5593 5590 5589 5586 5583 5580 5575 5568 5562 5558 5553 5547 5541 5535 5529 5524 5519
5586 5586 5586 5587 5589 5591 5592 5594 5595 5597 5598 5600 5600 5601 5601 5601 5599 5598 5596 5595 5593 5590 5587 5585 5583 5582 5578 5573 5565 5558 5554 5550 5544 5538 5532 5526 5519 5514
5590 5589 5590 5590 5591 5592 5594 5595 5596 5597 5598 5599 5599 5600 5600 5600 5598 5596 5594 5592 5589 5587 5585 5582 5582 5580 5575 5567 5560 5554 5550 5547 5543 5538 5532 5526 5518 5512
5594 5593 5593 5593 5594 5595 5596 5596 5597 5597 5598 5599 5600 5600 5600 5598 5596 5594 5592 5590 5588 5586 5583 5579 5577 5573 5568 5563 5557 5552 5548 5543 5539 5534 5530 5526 5521 5515